Location: Hawks Ness
(60.2333°N, 1.1667°W)
Time: 15:50:23
(UTC+00:00)

COSMOS 2428 - Pass Details

Date: 22 October 2019
Orbit: 844 x 858 km, 70.9° (Epoch: 22 November)

Event Time Altitude Azimuth Distance (km) Brightness Sun altitude
Exits shadow 04:41:33 29° 242° (WSW) 1,518 3.5 -17.9°
Maximum altitude 04:44:31 67° 317° (NW) 921 2.7 -17.5°
Drops below altitude 10° 04:50:12 10° 40° (NE) 2,482 5.8 -16.8°
Sets 04:52:41 0° 43° (NE) 3,421 6.7 -16.5°
